User: anonymous   Login
Location: Fort Wayne
(41.1310°N, 85.1290°W)
Time: 20:37:48
(UTC-05:00)
Language:

Cosmos 2082 - Orbit

View from above orbital plane
View from above orbital plane
View from above satellite
View from above satellite

Ground track
Ground track

The orbit data is extracted from the following two-line orbital elements,

1 20624U 90046A   17345.94372671 +.00000035 +00000-0 +43183-4 0  9993
2 20624 071.0385 202.5155 0013260 120.9984 239.2443 14.14233711422108
Epoch (UTC): 11 December 2017 22:38:57
Eccentricity: 0.0013260
inclination: 71.0385°
perigee height: 835 km
apogee height: 854 km
right ascension of ascending node: 202.5155°
argument of perigee: 120.9984°
revolutions per day: 14.14233711
mean anomaly at epoch: 239.2443°
orbit number at epoch: 42210

The dashed part of the orbit path shows where the satellite is in the earth's shadow,  

DLR